KC1OEK-13 Weather Reports


Display with metric or nautical units.
time (UTC)temp
F
wind
direction
speed
MPH
gust
MPH
rain 1hr
in
rain 24hr
in
rain mn
in
humidity
%
barometer
mb
20260510175551 68 197 5.0 7.0 0.00 0.00 0.00 71 1014.0
20260510175047 68 178 6.0 8.0 0.00 0.00 0.00 72 1014.0
20260510174545 69 184 3.0 8.0 0.00 0.00 0.00 71 1014.1
20260510174042 69 279 5.0 8.0 0.00 0.00 0.00 70 1014.1
20260510173537 69 300 3.0 7.0 0.00 0.00 0.00 72 1013.9
20260510173034 68 183 1.0 3.0 0.00 0.00 0.00 71 1013.8
20260510172530 69 234 6.0 8.0 0.00 0.00 0.00 70 1013.6
20260510172027 69 176 2.0 5.0 0.00 0.00 0.00 69 1013.6
20260510171523 68 252 5.0 6.0 0.00 0.00 0.00 70 1014.0
20260510171021 68 239 3.0 6.0 0.00 0.00 0.00 69 1013.9
20260510170517 68 260 3.0 5.0 0.00 0.00 0.00 71 1014.2
20260510170014 69 202 7.0 9.0 0.00 0.00 0.00 68 1013.8
20260510165509 67 215 9.0 11.0 0.00 0.00 0.00 71 1014.2
20260510165006 67 14 1.0 5.0 0.00 0.00 0.00 73 1014.2
20260510164503 68 173 7.0 9.0 0.00 0.00 0.00 72 1014.0
20260510163958 67 192 2.0 5.0 0.00 0.00 0.00 73 1014.2
20260510163449 66 124 2.0 6.0 0.00 0.00 0.00 74 1014.3
20260510162944 67 224 4.0 5.0 0.00 0.00 0.00 75 1014.3
20260510162441 65 321 2.0 3.0 0.00 0.00 0.00 76 1014.4
20260510161937 65 282 6.0 8.0 0.00 0.00 0.00 76 1014.4
20260510161432 65 262 3.0 6.0 0.00 0.00 0.00 77 1014.4
20260510160930 66 289 1.0 5.0 0.00 0.00 0.00 78 1014.4
20260510160426 64 307 3.0 8.0 0.00 0.00 0.00 79 1014.4
20260510155919 64 197 4.0 7.0 0.00 0.00 0.00 78 1014.5
20260510155417 64 86 2.0 6.0 0.00 0.00 0.00 79 1014.6
20260510154914 64 170 5.0 8.0 0.00 0.00 0.00 79 1014.4
20260510154409 64 197 4.0 5.0 0.00 0.00 0.00 78 1014.7
20260510153903 64 197 4.0 6.0 0.00 0.00 0.00 79 1014.7
20260510153400 64 210 5.0 7.0 0.00 0.00 0.00 79 1014.8
20260510152856 64 279 3.0 3.0 0.00 0.00 0.00 79 1014.9
20260510152354 64 4 2.0 7.0 0.00 0.00 0.00 80 1014.9
20260510151850 64 48 1.0 3.0 0.00 0.00 0.00 80 1014.7
20260510151348 64 236 2.0 3.0 0.00 0.00 0.00 82 1014.7
20260510150844 63 0 0.0 5.0 0.00 0.00 0.00 80 1014.8
20260510150339 63 246 3.0 5.0 0.00 0.00 0.00 79 1014.7
20260510145836 63 228 5.0 7.0 0.00 0.00 0.00 80 1014.9
20260510145332 62 278 3.0 5.0 0.00 0.00 0.00 80 1014.8
20260510144829 62 334 3.0 6.0 0.00 0.00 0.00 81 1014.6
20260510144326 61 209 5.0 8.0 0.00 0.00 0.00 80 1014.7
20260510143825 61 237 4.0 5.0 0.00 0.00 0.00 80 1014.7
20260510143322 62 252 3.0 3.0 0.00 0.00 0.00 82 1014.6
20260510142819 61 10 0.0 2.0 0.00 0.00 0.00 83 1014.6
20260510142315 61 21 0.0 2.0 0.00 0.00 0.00 84 1014.7
20260510141812 60 11 0.0 0.0 0.00 0.00 0.00 86 1014.7
20260510141309 59 16 0.0 3.0 0.00 0.00 0.00 88 1014.7
20260510140807 59 9 0.0 1.0 0.00 0.00 0.00 89 1014.9
20260510140302 58 16 0.0 1.0 0.00 0.00 0.00 90 1014.9
20260510135756 57 3 0.0 0.0 0.00 0.00 0.00 92 1014.9
20260510135252 56 344 1.0 2.0 0.00 0.00 0.00 92 1014.7
20260510134750 56 67 2.0 2.0 0.00 0.00 0.00 93 1014.8
20260510134247 55 20 0.0 5.0 0.00 0.00 0.00 93 1014.6
20260510133742 55 261 2.0 2.0 0.00 0.00 0.00 93 1014.7
20260510133238 55 20 0.0 2.0 0.00 0.00 0.00 93 1014.7
20260510132734 55 309 1.0 1.0 0.00 0.00 0.00 93 1014.4
20260510132232 55 8 0.0 1.0 0.00 0.00 0.00 95 1014.6
20260510131729 55 354 0.0 1.0 0.00 0.00 0.00 95 1014.6
20260510131227 54 349 0.0 1.0 0.00 0.00 0.00 95 1014.6
20260510130723 54 13 0.0 1.0 0.00 0.00 0.00 95 1014.8
20260510130220 54 345 0.0 1.0 0.00 0.00 0.00 94 1014.7
20260510125716 55 311 1.0 2.0 0.00 0.00 0.00 94 1014.6
20260510125212 55 17 0.0 1.0 0.00 0.00 0.00 94 1014.7
20260510124709 54 23 0.0 0.0 0.00 0.00 0.00 95 1014.7
20260510124207 54 358 0.0 1.0 0.00 0.00 0.00 94 1014.6
20260510123702 54 11 0.0 2.0 0.00 0.00 0.00 94 1014.3
20260510123158 54 18 0.0 0.0 0.00 0.00 0.00 96 1014.4
20260510122655 54 126 1.0 2.0 0.00 0.00 0.00 96 1014.2
20260510122151 54 145 0.0 2.0 0.00 0.00 0.00 97 1014.4
20260510121647 54 19 0.0 1.0 0.00 0.00 0.00 98 1014.2
20260510121145 53 12 0.0 0.0 0.00 0.00 0.00 98 1014.2
20260510120642 53 27 0.0 1.0 0.00 0.00 0.00 98 1014.2
20260510120138 53 15 0.0 0.0 0.00 0.00 0.00 99 1014.2
20260510115634 52 29 0.0 1.0 0.00 0.00 0.00 99 1014.1
20260510115133 52 24 0.0 0.0 0.00 0.00 0.00 99 1014.0
20260510114628 52 0 0.0 0.0 0.00 0.00 0.00 99 1014.0
20260510114124 51 357 0.0 1.0 0.00 0.00 0.00 99 1014.4
20260510113620 51 337 0.0 0.0 0.00 0.00 0.00 99 1014.1
20260510113117 51 64 1.0 1.0 0.00 0.00 0.00 99 1013.9
20260510112614 51 23 0.0 0.0 0.00 0.00 0.00 99 1014.0
20260510112110 51 22 0.0 0.0 0.00 0.00 0.00 99 1013.7
20260510111606 51 23 0.0 0.0 0.00 0.00 0.00 99 1013.7
20260510111102 51 9 0.0 0.0 0.00 0.00 0.00 99 1013.7
20260510110558 51 1 0.0 1.0 0.00 0.00 0.00 99 1014.0
20260510110055 51 359 0.0 0.0 0.00 0.00 0.00 99 1013.8
20260510105551 51 17 0.0 0.0 0.00 0.00 0.00 99 1013.6
20260510105045 51 17 0.0 1.0 0.00 0.00 0.00 99 1013.6
20260510104542 51 0 0.0 0.0 0.00 0.00 0.00 99 1013.8
20260510104039 51 355 0.0 1.0 0.00 0.00 0.00 99 1013.9
20260510103536 51 62 1.0 1.0 0.00 0.00 0.00 99 1013.9
20260510103032 51 0 0.0 0.0 0.00 0.00 0.00 99 1013.8
20260510102528 50 0 0.0 0.0 0.00 0.00 0.00 99 1013.6
20260510102024 50 2 0.0 0.0 0.00 0.00 0.00 99 1013.6
20260510101522 50 17 0.0 0.0 0.00 0.00 0.00 99 1013.4
20260510101021 50 10 0.0 0.0 0.00 0.00 0.00 99 1013.4
20260510100516 50 7 0.0 0.0 0.00 0.00 0.00 99 1013.4
20260510100014 50 33 1.0 2.0 0.00 0.00 0.00 99 1013.4
20260510095509 50 28 0.0 1.0 0.00 0.00 0.00 99 1013.2
20260510095008 50 15 0.0 1.0 0.00 0.00 0.00 99 1013.5
20260510094503 50 32 0.0 1.0 0.00 0.00 0.00 99 1013.7
20260510093959 50 16 0.0 0.0 0.00 0.00 0.00 99 1013.8
20260510093455 50 12 0.0 1.0 0.00 0.00 0.00 99 1013.7
20260510092952 50 0 0.0 0.0 0.00 0.00 0.00 99 1013.6
20260510092449 50 0 0.0 1.0 0.00 0.00 0.00 99 1013.6
20260510091948 50 4 0.0 0.0 0.00 0.00 0.00 99 1013.7
20260510091446 50 4 0.0 0.0 0.00 0.00 0.00 99 1013.7
20260510090942 50 4 0.0 0.0 0.00 0.00 0.00 99 1013.6
20260510090439 50 8 0.0 0.0 0.00 0.00 0.00 99 1013.5
20260510085934 50 12 0.0 0.0 0.00 0.00 0.00 99 1013.6
20260510085430 50 18 0.0 0.0 0.00 0.00 0.00 99 1013.4
20260510084925 50 356 0.0 1.0 0.00 0.00 0.00 99 1013.8
20260510084423 50 4 0.0 0.0 0.00 0.00 0.00 99 1014.0
20260510083920 50 4 0.0 0.0 0.00 0.00 0.00 99 1013.9
20260510083416 50 4 0.0 1.0 0.00 0.00 0.00 99 1013.6
20260510082911 50 8 0.0 1.0 0.00 0.00 0.00 99 1013.7
20260510082409 50 18 0.0 0.0 0.00 0.00 0.00 99 1013.6
20260510081908 50 20 0.0 0.0 0.00 0.00 0.00 99 1013.7
20260510081404 50 69 1.0 1.0 0.00 0.00 0.00 99 1013.5
20260510080900 50 11 0.0 0.0 0.00 0.00 0.00 99 1013.8
20260510080354 50 2 0.0 0.0 0.00 0.00 0.00 99 1013.7
20260510075852 50 8 0.0 1.0 0.00 0.00 0.00 99 1013.6
20260510075350 50 344 2.0 3.0 0.00 0.00 0.00 99 1013.6
20260510074845 50 4 0.0 3.0 0.00 0.00 0.00 99 1013.4
20260510074343 50 4 1.0 5.0 0.00 0.00 0.00 99 1013.6
20260510073839 50 2 1.0 3.0 0.00 0.00 0.00 99 1013.3
20260510073335 51 0 1.0 3.0 0.00 0.00 0.00 99 1013.3
20260510072831 51 17 1.0 1.0 0.00 0.00 0.00 99 1013.3
20260510072328 51 4 0.0 1.0 0.00 0.00 0.00 99 1013.3
20260510071819 51 356 0.0 0.0 0.00 0.00 0.00 99 1013.4
20260510071315 51 9 0.0 2.0 0.00 0.00 0.00 99 1013.3
20260510070814 51 339 0.0 0.0 0.00 0.00 0.00 99 1013.2
20260510070305 51 340 1.0 2.0 0.00 0.00 0.00 99 1013.2
20260510065805 51 356 0.0 1.0 0.00 0.00 0.00 99 1013.4
20260510065306 51 356 0.0 1.0 0.00 0.00 0.00 99 1013.3
20260510064759 51 17 0.0 1.0 0.00 0.00 0.00 99 1013.2
20260510064257 51 4 0.0 1.0 0.00 0.00 0.00 99 1013.5
20260510063752 51 1 0.0 1.0 0.00 0.00 0.00 99 1013.4
20260510063248 51 322 0.0 2.0 0.00 0.00 0.00 99 1013.3
20260510062745 51 1 0.0 1.0 0.00 0.00 0.00 99 1013.3
20260510062241 51 2 0.0 1.0 0.00 0.00 0.00 99 1013.4
20260510061736 51 11 0.0 1.0 0.00 0.00 0.00 99 1013.2
20260510061234 51 3 0.0 1.0 0.00 0.00 0.00 99 1013.0
20260510060730 51 348 1.0 1.0 0.00 0.00 0.00 99 1013.0
20260510060227 51 4 0.0 1.0 0.00 0.00 0.00 99 1013.0
20260510055723 51 12 0.0 1.0 0.00 0.00 0.00 99 1013.0
20260510055221 51 8 0.0 0.0 0.00 0.00 0.00 99 1012.9
20260510054716 51 8 0.0 1.0 0.00 0.00 0.00 99 1013.1
20260510054212 51 10 0.0 0.0 0.00 0.00 0.00 99 1013.1
20260510053712 51 4 0.0 0.0 0.00 0.00 0.00 99 1013.0
20260510053209 51 12 0.0 0.0 0.00 0.00 0.00 99 1013.2
20260510052704 51 12 0.0 0.0 0.00 0.00 0.00 99 1013.3
20260510052200 51 12 0.0 1.0 0.00 0.00 0.00 99 1013.4
20260510051656 51 11 0.0 0.0 0.00 0.00 0.00 99 1013.1
20260510051153 51 11 0.0 0.0 0.00 0.00 0.00 99 1013.1
20260510050650 51 11 0.0 0.0 0.00 0.00 0.00 99 1013.1
20260510050148 51 12 0.0 1.0 0.00 0.00 0.00 99 1013.2
20260510045644 51 4 0.0 1.0 0.00 0.00 0.00 99 1013.2
20260510045141 51 4 0.0 0.0 0.00 0.00 0.00 99 1013.2
20260510044637 51 19 0.0 0.0 0.00 0.00 0.00 99 1013.2
20260510044134 51 19 0.0 0.0 0.00 0.00 0.00 99 1013.2
20260510043630 51 20 0.0 0.0 0.00 0.00 0.00 99 1013.1
20260510043127 51 4 0.0 0.0 0.00 0.00 0.00 99 1013.3
20260510042625 51 2 0.0 1.0 0.00 0.00 0.00 99 1013.3
20260510042120 51 8 0.0 0.0 0.00 0.00 0.00 99 1013.2
20260510041618 52 8 0.0 0.0 0.00 0.00 0.00 99 1013.1
20260510041115 51 8 0.0 0.0 0.00 0.00 0.00 99 1013.0
20260510040612 51 9 0.0 0.0 0.00 0.00 0.00 99 1012.7
20260510040108 51 348 1.0 1.0 0.00 0.00 0.00 99 1013.1
20260510035604 52 8 0.0 1.0 0.00 0.53 0.53 99 1013.0
20260510035104 52 357 0.0 0.0 0.00 0.53 0.53 99 1012.9
20260510034601 52 357 0.0 0.0 0.00 0.53 0.53 99 1013.1
20260510034059 52 354 0.0 1.0 0.00 0.53 0.53 99 1013.0
20260510033555 52 4 0.0 0.0 0.00 0.53 0.53 99 1013.3
20260510033052 52 6 0.0 0.0 0.00 0.53 0.53 99 1013.0
20260510032549 52 8 0.0 0.0 0.00 0.53 0.53 99 1013.3
20260510032044 52 356 0.0 2.0 0.00 0.53 0.53 99 1013.0
20260510031539 52 355 0.0 1.0 0.00 0.53 0.53 99 1013.3
20260510031036 52 357 0.0 0.0 0.00 0.53 0.53 99 1013.3
20260510030531 52 357 0.0 0.0 0.00 0.53 0.53 99 1013.4
20260510030029 52 356 0.0 1.0 0.00 0.53 0.53 99 1013.1
20260510025526 52 11 0.0 0.0 0.00 0.53 0.53 99 1013.3
20260510025023 52 10 0.0 0.0 0.00 0.53 0.53 99 1013.3
20260510024520 52 12 0.0 0.0 0.00 0.53 0.53 99 1013.3
20260510024016 52 8 0.0 0.0 0.00 0.53 0.53 99 1012.9
20260510023512 52 142 2.0 2.0 0.00 0.53 0.53 99 1013.1
20260510023010 52 13 0.0 2.0 0.00 0.53 0.53 99 1012.9
20260510022509 52 11 0.0 0.0 0.00 0.53 0.53 99 1013.1
20260510022008 52 19 1.0 1.0 0.00 0.53 0.53 99 1013.0
20260510021506 52 23 0.0 0.0 0.00 0.53 0.53 99 1013.0
20260510021003 52 8 0.0 0.0 0.00 0.53 0.53 99 1013.0
20260510020457 52 38 0.0 1.0 0.00 0.53 0.53 99 1013.0
20260510015953 52 19 0.0 0.0 0.00 0.53 0.53 99 1013.0
20260510015449 53 21 0.0 0.0 0.00 0.53 0.53 99 1013.2
20260510014944 53 11 0.0 0.0 0.00 0.53 0.53 99 1013.1
20260510014442 53 10 0.0 1.0 0.00 0.53 0.53 99 1013.1
20260510013938 53 4 0.0 2.0 0.00 0.53 0.53 99 1013.2
20260510013433 53 330 1.0 2.0 0.00 0.53 0.53 99 1013.2
20260510012929 53 339 1.0 2.0 0.00 0.53 0.53 99 1013.1
20260510012424 53 22 0.0 1.0 0.00 0.53 0.53 99 1012.9
20260510011919 53 2 0.0 1.0 0.00 0.53 0.53 99 1013.0
20260510011414 53 4 0.0 0.0 0.00 0.53 0.53 99 1012.9
20260510010910 53 4 0.0 0.0 0.00 0.53 0.53 99 1012.9
20260510010408 53 4 0.0 0.0 0.00 0.53 0.53 99 1012.6
20260510005904 53 1 1.0 1.0 0.00 0.53 0.53 99 1012.5
20260510005400 53 20 0.0 0.0 0.00 0.53 0.53 99 1012.6
20260510004858 53 14 0.0 1.0 0.00 0.53 0.53 99 1012.7
20260510004355 53 11 1.0 1.0 0.00 0.53 0.53 99 1012.7
20260510003853 53 18 0.0 1.0 0.00 0.53 0.53 99 1012.4
20260510003350 53 21 0.0 0.0 0.00 0.53 0.53 99 1012.6
20260510002848 53 21 0.0 0.0 0.00 0.53 0.53 99 1012.4
20260510002346 53 22 0.0 1.0 0.00 0.53 0.53 99 1012.5
20260510001842 53 15 0.0 1.0 0.00 0.53 0.53 99 1012.4
20260510001341 53 11 0.0 0.0 0.00 0.53 0.53 99 1012.3
20260510000836 53 18 0.0 0.0 0.00 0.53 0.53 99 1012.2
20260510000334 53 19 0.0 1.0 0.00 0.53 0.53 99 1012.2
20260509235830 53 19 0.0 0.0 0.00 0.53 0.53 99 1012.6
20260509235327 53 19 0.0 0.0 0.00 0.53 0.53 99 1012.3
20260509234823 53 16 0.0 1.0 0.00 0.53 0.53 99 1012.3
20260509234320 53 38 0.0 2.0 0.00 0.53 0.53 99 1012.3
20260509233818 53 316 2.0 2.0 0.00 0.53 0.53 99 1012.3
20260509233316 53 3 0.0 2.0 0.00 0.53 0.53 99 1012.3
20260509232811 53 15 0.0 1.0 0.05 0.53 0.53 99 1012.2
20260509232309 53 33 1.0 3.0 0.05 0.53 0.53 99 1012.3
20260509231805 53 164 1.0 2.0 0.00 0.52 0.52 99 1012.3
20260509231302 53 14 0.0 2.0 0.00 0.52 0.52 99 1012.4
20260509230800 53 351 0.0 1.0 0.00 0.52 0.52 99 1012.5
20260509230256 53 353 0.0 1.0 0.00 0.52 0.52 99 1012.7
20260509225751 54 10 0.0 0.0 0.00 0.52 0.52 99 1012.7
20260509225248 54 16 0.0 0.0 0.00 0.52 0.52 99 1012.6
20260509224744 54 13 0.0 0.0 0.07 0.52 0.52 99 1012.8
20260509224241 54 16 0.0 0.0 0.07 0.52 0.52 99 1012.9
20260509223738 54 16 0.0 0.0 0.05 0.51 0.51 99 1012.9
20260509223235 54 354 0.0 1.0 0.07 0.50 0.50 99 1013.0
20260509222732 54 357 0.0 1.0 0.05 0.49 0.49 99 1013.0
20260509222227 54 326 2.0 2.0 0.12 0.49 0.49 99 1013.2
20260509221723 54 2 1.0 1.0 0.12 0.48 0.48 99 1013.0
20260509221219 53 49 0.0 1.0 0.17 0.47 0.47 99 1012.7
20260509220715 54 336 0.0 3.0 0.12 0.45 0.45 99 1012.8
20260509220212 54 359 1.0 1.0 0.12 0.44 0.44 99 1013.2
20260509215707 54 278 1.0 2.0 0.12 0.43 0.43 99 1013.3
20260509215204 54 231 2.0 2.0 0.14 0.42 0.42 99 1013.4
20260509214702 54 13 0.0 1.0 0.07 0.41 0.41 99 1013.3
20260509214158 54 359 0.0 2.0 0.05 0.40 0.40 99 1013.4
20260509213655 55 1 1.0 2.0 0.07 0.39 0.39 99 1013.5
20260509213151 55 359 0.0 0.0 0.07 0.39 0.39 99 1013.4
20260509212648 54 359 0.0 1.0 0.00 0.38 0.38 99 1013.1
20260509212145 55 358 0.0 1.0 0.05 0.38 0.38 99 1012.9
20260509211641 55 359 0.0 0.0 0.05 0.38 0.38 99 1013.1
20260509211138 55 348 0.0 1.0 0.00 0.37 0.37 99 1013.2
20260509210635 55 16 0.0 1.0 0.00 0.37 0.37 99 1012.9
20260509210132 55 22 0.0 1.0 0.00 0.37 0.37 99 1012.9
20260509205627 55 7 0.0 0.0 0.07 0.37 0.37 99 1012.8
20260509205121 55 7 0.0 1.0 0.07 0.37 0.37 99 1012.9
20260509204617 55 20 1.0 1.0 0.05 0.36 0.36 99 1012.9
20260509204114 55 27 0.0 1.0 0.05 0.36 0.36 99 1013.0
20260509203610 54 24 0.0 2.0 0.07 0.35 0.35 99 1013.1
20260509203103 54 284 1.0 1.0 0.05 0.34 0.34 99 1013.3
20260509202557 55 3 0.0 1.0 0.12 0.34 0.34 99 1013.3
20260509202053 54 18 0.0 1.0 0.12 0.33 0.33 99 1013.1
20260509201548 54 356 0.0 1.0 0.12 0.32 0.32 99 1013.5
20260509201046 54 22 0.0 1.0 0.12 0.31 0.31 99 1013.3
20260509200545 54 343 1.0 1.0 0.05 0.30 0.30 99 1013.5
20260509200042 54 16 0.0 0.0 0.07 0.29 0.29 99 1013.2
20260509195537 54 359 0.0 1.0 0.07 0.29 0.29 98 1013.2
20260509195032 54 2 0.0 1.0 0.07 0.28 0.28 98 1013.4
20260509194527 54 3 0.0 0.0 0.07 0.28 0.28 98 1013.1
20260509194024 54 4 0.0 0.0 0.05 0.27 0.27 98 1013.2
20260509193519 54 4 0.0 1.0 0.07 0.26 0.26 98 1013.2
20260509193016 54 352 0.0 0.0 0.05 0.25 0.25 98 1013.4
20260509192512 54 0 0.0 0.0 0.07 0.24 0.24 97 1013.4
20260509192007 54 5 0.0 0.0 0.19 0.24 0.24 97 1013.3
20260509191502 54 58 1.0 1.0 0.24 0.23 0.23 97 1013.5
20260509190958 55 9 0.0 2.0 0.31 0.21 0.21 96 1013.4
20260509190455 55 3 1.0 1.0 0.54 0.19 0.19 95 1013.6
20260509185953 55 0 0.0 1.0 0.54 0.15 0.15 93 1013.3
20260509185450 56 23 0.0 1.0 0.24 0.09 0.09 91 1013.1
20260509184946 56 356 2.0 2.0 0.12 0.06 0.06 89 1013.2
20260509184444 57 16 0.0 1.0 0.07 0.05 0.05 87 1012.8
20260509183940 58 19 0.0 0.0 0.00 0.04 0.04 86 1013.1
20260509183435 58 24 0.0 1.0 0.00 0.04 0.04 84 1013.0
20260509182932 57 27 0.0 1.0 0.00 0.04 0.04 84 1013.1
20260509182428 57 6 0.0 1.0 0.00 0.04 0.04 84 1013.1
20260509181926 57 5 1.0 1.0 0.00 0.04 0.04 84 1013.0
20260509181424 58 29 1.0 1.0 0.00 0.04 0.04 84 1012.9
20260509180921 57 40 1.0 2.0 0.00 0.04 0.04 84 1013.0
20260509180416 58 359 2.0 3.0 0.00 0.04 0.04 83 1013.0